Location: *
(60.1759°S, 155.0663°W)
Time: 22:56:28
(UTC+00:00)

Cosmos 2098 Rocket - Pass Details

Date: 17 September 2019
Orbit: 368 x 1191 km, 82.9° (Epoch: 13 October)

Event Time Altitude Azimuth Distance (km) Brightness Sun altitude
Rises 15:07:57 0° 191° (S) 2,614 6.3 -10.2°
Reaches altitude 10° 15:10:21 10° 182° (S) 1,622 5.4 -9.9°
Maximum altitude 15:13:33 35° 113° (ESE) 701 4.2 -9.5°
Drops below altitude 10° 15:16:23 10° 44° (NE) 1,431 5.4 -9.1°
Sets 15:18:22 0° 34° (NE) 2,253 6.3 -8.9°
